When you browse on this site, cookies collect data to enhance your experience and personalize the content and advertising you see.
Visit our Privacy Policy to learn more. By continuing to use the site, you agree to this use of cookies and data.
  • In Sweden
  • List of Countries
  • For 7 days
  • Water Temperature
  • Weather Map
  • Weather Widgets
  • user-avatar
    Login

    Hourly Weather Agazzano

    Today, 25 February, Tuesday

    Time Temperature Precipitation Wind Pressure Humidity
    00:00 +10°C° 0 mm 1 mps 750 mmHg 88%
    01:00 +10°C° 0 mm 1 mps 750 mmHg 88%
    02:00 +10°C° 0 mm 1 mps 749 mmHg 88%
    03:00 +10°C° 0 mm 1 mps 748 mmHg 88%
    04:00 +10°C° 0 mm 1 mps 747 mmHg 88%
    05:00 +10°C° 0 mm 1 mps 747 mmHg 89%
    06:00 +9°C° 0 mm 0 mps 747 mmHg 89%
    07:00 +9°C° 0 mm 0 mps 747 mmHg 90%
    08:00 +10°C° 0 mm 0 mps 747 mmHg 88%
    09:00 +10°C° 0 mm 0 mps 746 mmHg 85%
    10:00 +12°C° 0 mm 1 mps 746 mmHg 82%
    11:00 +13°C° 0 mm 1 mps 746 mmHg 80%
    12:00 +13°C° 0 mm 1 mps 745 mmHg 77%
    13:00 +14°C° 0 mm 2 mps 745 mmHg 75%
    14:00 +14°C° 0 mm 2 mps 744 mmHg 76%
    15:00 +13°C° 0 mm 2 mps 743 mmHg 78%
    16:00 +13°C° 0 mm 2 mps 742 mmHg 79%
    17:00 +13°C° 0 mm 1 mps 742 mmHg 81%
    18:00 +12°C° 0 mm 1 mps 742 mmHg 84%
    19:00 +11°C° 0 mm 1 mps 741 mmHg 87%
    20:00 +11°C° 0 mm 1 mps 741 mmHg 87%
    21:00 +11°C° 0 mm 1 mps 740 mmHg 88%
    22:00 +10°C° 0 mm 1 mps 740 mmHg 88%
    23:00 +10°C° 0 mm 1 mps 739 mmHg 88%

    Tomorrow, 26 February, Wednesday

    Time Temperature Precipitation Wind Pressure Humidity
    00:00 +10°C° 0 mm 1 mps 738 mmHg 88%
    01:00 +10°C° 0 mm 1 mps 738 mmHg 88%
    02:00 +9°C° 0 mm 1 mps 737 mmHg 89%
    03:00 +9°C° 0 mm 1 mps 737 mmHg 89%
    04:00 +8°C° 0 mm 2 mps 736 mmHg 90%
    05:00 +8°C° 0 mm 2 mps 736 mmHg 90%
    06:00 +7°C° 0 mm 3 mps 736 mmHg 90%
    07:00 +6°C° 0 mm 4 mps 736 mmHg 89%
    08:00 +7°C° 0 mm 5 mps 736 mmHg 74%
    09:00 +8°C° 0 mm 6 mps 736 mmHg 60%
    10:00 +9°C° 0 mm 7 mps 736 mmHg 45%
    11:00 +10°C° 0 mm 7 mps 736 mmHg 39%
    12:00 +11°C° 0 mm 7 mps 736 mmHg 33%
    13:00 +11°C° 0 mm 7 mps 736 mmHg 28%
    14:00 +11°C° 0 mm 7 mps 736 mmHg 28%
    15:00 +10°C° 0 mm 7 mps 736 mmHg 28%
    16:00 +9°C° 0 mm 7 mps 736 mmHg 28%
    17:00 +8°C° 0 mm 7 mps 738 mmHg 29%
    18:00 +7°C° 0 mm 6 mps 739 mmHg 31%
    19:00 +4°C° 0 mm 6 mps 740 mmHg 32%
    20:00 +4°C° 0 mm 6 mps 741 mmHg 35%
    21:00 +3°C° 0 mm 5 mps 742 mmHg 38%
    22:00 +4°C° 0 mm 4 mps 743 mmHg 40%
    23:00 +4°C° 0 mm 4 mps 744 mmHg 41%

    Day after tomorrow, 27 February, Thursday

    Time Temperature Precipitation Wind Pressure Humidity
    00:00 +3°C° 0 mm 5 mps 745 mmHg 42%
    01:00 +2°C° 0 mm 5 mps 745 mmHg 43%
    02:00 +3°C° 0 mm 4 mps 745 mmHg 44%
    03:00 +3°C° 0 mm 4 mps 746 mmHg 46%
    04:00 +2°C° 0 mm 3 mps 746 mmHg 47%
    05:00 +2°C° 0 mm 3 mps 746 mmHg 48%
    06:00 +2°C° 0 mm 3 mps 747 mmHg 49%
    07:00 +2°C° 0 mm 3 mps 747 mmHg 50%
    08:00 +3°C° 0 mm 3 mps 747 mmHg 46%
    09:00 +6°C° 0 mm 2 mps 747 mmHg 42%
    10:00 +8°C° 0 mm 2 mps 747 mmHg 39%
    11:00 +9°C° 0 mm 2 mps 747 mmHg 38%
    12:00 +9°C° 0 mm 2 mps 746 mmHg 37%
    13:00 +10°C° 0 mm 2 mps 746 mmHg 36%
    14:00 +10°C° 0 mm 2 mps 745 mmHg 39%
    15:00 +10°C° 0 mm 2 mps 744 mmHg 43%
    16:00 +10°C° 0 mm 2 mps 743 mmHg 46%
    17:00 +8°C° 0 mm 2 mps 743 mmHg 51%
    18:00 +8°C° 0 mm 1 mps 743 mmHg 56%
    19:00 +7°C° 0 mm 1 mps 743 mmHg 61%
    20:00 +7°C° 0 mm 1 mps 742 mmHg 64%
    21:00 +6°C° 0 mm 1 mps 741 mmHg 66%
    22:00 +6°C° 0 mm 1 mps 741 mmHg 68%
    23:00 +5°C° 0 mm 2 mps 741 mmHg 70%

    28 February, Friday

    Time Temperature Precipitation Wind Pressure Humidity
    00:00 +5°C° 0 mm 2 mps 741 mmHg 71%
    01:00 +4°C° 0 mm 3 mps 741 mmHg 73%
    02:00 +3°C° 0 mm 3 mps 742 mmHg 72%
    03:00 +3°C° 0 mm 3 mps 742 mmHg 72%
    04:00 +3°C° 0 mm 3 mps 743 mmHg 71%
    05:00 +3°C° 0 mm 3 mps 744 mmHg 66%
    06:00 +3°C° 0 mm 4 mps 745 mmHg 60%
    07:00 +3°C° 0 mm 4 mps 746 mmHg 54%
    08:00 +5°C° 0 mm 4 mps 747 mmHg 48%
    09:00 +6°C° 0 mm 4 mps 748 mmHg 42%
    10:00 +8°C° 0 mm 4 mps 748 mmHg 36%
    11:00 +10°C° 0 mm 3 mps 748 mmHg 33%
    12:00 +11°C° 0 mm 3 mps 748 mmHg 30%
    13:00 +13°C° 0 mm 2 mps 749 mmHg 28%
    14:00 +13°C° 0 mm 2 mps 749 mmHg 28%
    15:00 +13°C° 0 mm 1 mps 749 mmHg 28%
    16:00 +13°C° 0 mm 1 mps 749 mmHg 28%
    17:00 +11°C° 0 mm 1 mps 749 mmHg 32%
    18:00 +10°C° 0 mm 1 mps 749 mmHg 37%
    19:00 +8°C° 0 mm 1 mps 750 mmHg 42%
    20:00 +8°C° 0 mm 1 mps 750 mmHg 43%
    21:00 +8°C° 0 mm 1 mps 750 mmHg 44%
    22:00 +7°C° 0 mm 1 mps 751 mmHg 46%
    23:00 +7°C° 0 mm 1 mps 751 mmHg 46%

    29 February, Saturday

    Time Temperature Precipitation Wind Pressure Humidity
    00:00 +6°C° 0 mm 1 mps 751 mmHg 47%
    01:00 +6°C° 0 mm 1 mps 751 mmHg 48%
    02:00 +6°C° 0 mm 1 mps 750 mmHg 50%
    03:00 +5°C° 0 mm 1 mps 750 mmHg 51%
    04:00 +5°C° 0 mm 1 mps 750 mmHg 53%
    05:00 +5°C° 0 mm 1 mps 750 mmHg 55%
    06:00 +5°C° 0 mm 1 mps 750 mmHg 57%
    07:00 +5°C° 0 mm 1 mps 750 mmHg 59%
    08:00 +6°C° 0 mm 1 mps 750 mmHg 58%
    09:00 +7°C° 0 mm 1 mps 750 mmHg 56%
    10:00 +9°C° 0 mm 1 mps 750 mmHg 55%
    11:00 +10°C° 0 mm 1 mps 750 mmHg 54%
    12:00 +11°C° 0 mm 1 mps 749 mmHg 52%
    13:00 +12°C° 0 mm 2 mps 749 mmHg 51%
    14:00 +11°C° 0 mm 1 mps 748 mmHg 55%
    15:00 +11°C° 0 mm 1 mps 748 mmHg 58%
    16:00 +11°C° 0 mm 1 mps 748 mmHg 61%
    17:00 +10°C° 0 mm 1 mps 747 mmHg 65%
    18:00 +9°C° 0 mm 2 mps 747 mmHg 69%
    19:00 +8°C° 0 mm 2 mps 747 mmHg 72%
    20:00 +8°C° 0.2 mm 2 mps 747 mmHg 76%
    21:00 +7°C° 0.2 mm 2 mps 747 mmHg 80%
    22:00 +7°C° 0.2 mm 2 mps 746 mmHg 84%
    23:00 +6°C° 0.5 mm 2 mps 746 mmHg 86%

    1 March, Sunday

    Time Temperature Precipitation Wind Pressure Humidity
    00:00 +6°C° 0.5 mm 2 mps 745 mmHg 89%
    01:00 +6°C° 0.5 mm 2 mps 744 mmHg 92%
    02:00 +7°C° 0.9 mm 1 mps 744 mmHg 93%
    03:00 +7°C° 0.9 mm 1 mps 743 mmHg 94%
    04:00 +6°C° 0.9 mm 1 mps 743 mmHg 94%
    05:00 +6°C° 1.2 mm 1 mps 743 mmHg 95%
    06:00 +6°C° 1.2 mm 1 mps 743 mmHg 95%
    07:00 +6°C° 1.2 mm 1 mps 742 mmHg 95%
    08:00 +7°C° 0.6 mm 1 mps 743 mmHg 94%
    09:00 +7°C° 0.6 mm 1 mps 743 mmHg 93%
    10:00 +7°C° 0.6 mm 1 mps 743 mmHg 93%
    11:00 +7°C° 0.2 mm 1 mps 743 mmHg 90%
    12:00 +8°C° 0.2 mm 1 mps 743 mmHg 87%
    13:00 +8°C° 0.2 mm 1 mps 743 mmHg 83%
    14:00 +10°C° 0 mm 1 mps 743 mmHg 78%
    15:00 +11°C° 0 mm 1 mps 742 mmHg 73%
    16:00 +12°C° 0 mm 1 mps 742 mmHg 68%
    17:00 +10°C° 0 mm 1 mps 743 mmHg 74%
    18:00 +9°C° 0 mm 1 mps 743 mmHg 80%
    19:00 +7°C° 0 mm 2 mps 743 mmHg 85%
    20:00 +7°C° 0 mm 2 mps 744 mmHg 87%
    21:00 +6°C° 0 mm 2 mps 744 mmHg 88%
    22:00 +5°C° 0 mm 2 mps 745 mmHg 90%
    23:00 +5°C° 0 mm 2 mps 745 mmHg 90%
    Show more